When you browse on this site, cookies collect data to enhance your experience and personalize the content and advertising you see.
Visit our Privacy Policy to learn more. By continuing to use the site, you agree to this use of cookies and data.
  • In Lithuania
  • List of Countries
  • For 7 days
  • Water Temperature
  • Satellite Maps
  • Weather Map
  • Weather Widgets
  • user-avatar
    Login

    Hourly Weather Ho Chi Minh

    Today, 18 November, Sunday

    Time Temperature Precipitation Wind Pressure Humidity
    00:00 +27°C° 0 mm 1 mps 757 mmHg 82%
    01:00 +27°C° 0 mm 1 mps 757 mmHg 81%
    02:00 +27°C° 0 mm 1 mps 757 mmHg 81%
    03:00 +27°C° 0 mm 1 mps 757 mmHg 81%
    04:00 +27°C° 0 mm 1 mps 757 mmHg 81%
    05:00 +27°C° 0.1 mm 2 mps 757 mmHg 82%
    06:00 +27°C° 0.1 mm 2 mps 757 mmHg 82%
    07:00 +27°C° 0.1 mm 2 mps 758 mmHg 83%
    08:00 +27°C° 0.2 mm 2 mps 758 mmHg 80%
    09:00 +28°C° 0.2 mm 3 mps 758 mmHg 77%
    10:00 +29°C° 0.2 mm 3 mps 758 mmHg 74%
    11:00 +29°C° 0.3 mm 3 mps 758 mmHg 73%
    12:00 +29°C° 0.3 mm 4 mps 758 mmHg 73%
    13:00 +29°C° 0.3 mm 4 mps 757 mmHg 72%
    14:00 +29°C° 0.2 mm 4 mps 757 mmHg 75%
    15:00 +28°C° 0.2 mm 4 mps 757 mmHg 78%
    16:00 +28°C° 0.2 mm 4 mps 756 mmHg 80%
    17:00 +27°C° 0 mm 3 mps 756 mmHg 82%
    18:00 +26°C° 0 mm 3 mps 757 mmHg 84%
    19:00 +26°C° 0 mm 3 mps 757 mmHg 86%
    20:00 +25°C° 0 mm 2 mps 757 mmHg 87%
    21:00 +25°C° 0 mm 2 mps 758 mmHg 88%
    22:00 +25°C° 0 mm 2 mps 758 mmHg 89%
    23:00 +24°C° 0 mm 1 mps 758 mmHg 90%

    Tomorrow, 19 November, Monday

    Time Temperature Precipitation Wind Pressure Humidity
    00:00 +24°C° 0 mm 1 mps 758 mmHg 91%
    01:00 +24°C° 0 mm 1 mps 758 mmHg 92%
    02:00 +24°C° 0 mm 1 mps 758 mmHg 92%
    03:00 +22°C° 0 mm 0 mps 757 mmHg 93%
    04:00 +22°C° 0 mm 0 mps 757 mmHg 94%
    05:00 +22°C° 0 mm 0 mps 758 mmHg 92%
    06:00 +25°C° 0 mm 1 mps 758 mmHg 91%
    07:00 +25°C° 0 mm 1 mps 758 mmHg 89%
    08:00 +27°C° 0.1 mm 1 mps 759 mmHg 83%
    09:00 +29°C° 0.1 mm 2 mps 759 mmHg 76%
    10:00 +30°C° 0.1 mm 3 mps 759 mmHg 70%
    11:00 +31°C° 0.3 mm 3 mps 758 mmHg 68%
    12:00 +33°C° 0.3 mm 3 mps 758 mmHg 66%
    13:00 +33°C° 0.3 mm 4 mps 757 mmHg 64%
    14:00 +33°C° 0.2 mm 4 mps 757 mmHg 65%
    15:00 +33°C° 0.2 mm 4 mps 756 mmHg 65%
    16:00 +33°C° 0.2 mm 4 mps 756 mmHg 66%
    17:00 +32°C° 0.1 mm 4 mps 756 mmHg 72%
    18:00 +29°C° 0.1 mm 3 mps 757 mmHg 78%
    19:00 +28°C° 0.1 mm 3 mps 758 mmHg 84%
    20:00 +28°C° 0.1 mm 3 mps 758 mmHg 86%
    21:00 +27°C° 0.1 mm 3 mps 759 mmHg 88%
    22:00 +27°C° 0.1 mm 3 mps 759 mmHg 89%
    23:00 +27°C° 0.1 mm 2 mps 759 mmHg 90%

    Day after tomorrow, 20 November, Tuesday

    Time Temperature Precipitation Wind Pressure Humidity
    00:00 +27°C° 0.1 mm 2 mps 759 mmHg 91%
    01:00 +26°C° 0.1 mm 2 mps 758 mmHg 92%
    02:00 +26°C° 0.3 mm 2 mps 758 mmHg 93%
    03:00 +26°C° 0.3 mm 2 mps 758 mmHg 93%
    04:00 +26°C° 0.3 mm 2 mps 757 mmHg 94%
    05:00 +26°C° 0 mm 2 mps 758 mmHg 93%
    06:00 +26°C° 0 mm 2 mps 758 mmHg 92%
    07:00 +27°C° 0 mm 2 mps 759 mmHg 90%
    08:00 +29°C° 0 mm 2 mps 759 mmHg 81%
    09:00 +30°C° 0 mm 3 mps 759 mmHg 71%
    10:00 +33°C° 0 mm 3 mps 759 mmHg 61%
    11:00 +34°C° 0 mm 3 mps 759 mmHg 57%
    12:00 +35°C° 0 mm 3 mps 758 mmHg 53%
    13:00 +36°C° 0 mm 3 mps 757 mmHg 49%
    14:00 +35°C° 0 mm 3 mps 756 mmHg 52%
    15:00 +35°C° 0 mm 3 mps 756 mmHg 56%
    16:00 +34°C° 0 mm 3 mps 755 mmHg 59%
    17:00 +33°C° 0 mm 3 mps 756 mmHg 66%
    18:00 +30°C° 0 mm 3 mps 756 mmHg 72%
    19:00 +28°C° 0 mm 3 mps 757 mmHg 79%
    20:00 +28°C° 0 mm 2 mps 757 mmHg 81%
    21:00 +28°C° 0 mm 2 mps 758 mmHg 82%
    22:00 +27°C° 0 mm 2 mps 758 mmHg 84%
    23:00 +27°C° 0.6 mm 2 mps 758 mmHg 86%

    21 November, Wednesday

    Time Temperature Precipitation Wind Pressure Humidity
    00:00 +27°C° 0.6 mm 2 mps 758 mmHg 87%
    01:00 +27°C° 0.6 mm 2 mps 757 mmHg 89%
    02:00 +26°C° 0.1 mm 1 mps 757 mmHg 89%
    03:00 +26°C° 0.1 mm 1 mps 757 mmHg 90%
    04:00 +26°C° 0.1 mm 1 mps 757 mmHg 90%
    05:00 +26°C° 0 mm 1 mps 757 mmHg 89%
    06:00 +27°C° 0 mm 1 mps 758 mmHg 88%
    07:00 +27°C° 0 mm 1 mps 758 mmHg 87%
    08:00 +29°C° 0 mm 1 mps 758 mmHg 80%
    09:00 +30°C° 0 mm 2 mps 758 mmHg 73%
    10:00 +32°C° 0 mm 2 mps 759 mmHg 67%
    11:00 +32°C° 0 mm 2 mps 758 mmHg 63%
    12:00 +34°C° 0 mm 2 mps 757 mmHg 60%
    13:00 +35°C° 0 mm 2 mps 756 mmHg 57%
    14:00 +35°C° 0 mm 2 mps 756 mmHg 56%
    15:00 +35°C° 0 mm 2 mps 755 mmHg 55%
    16:00 +35°C° 0 mm 2 mps 755 mmHg 55%
    17:00 +33°C° 0 mm 1 mps 755 mmHg 58%
    18:00 +31°C° 0 mm 1 mps 756 mmHg 62%
    19:00 +30°C° 0 mm 1 mps 757 mmHg 66%
    20:00 +29°C° 0 mm 1 mps 757 mmHg 70%
    21:00 +29°C° 0 mm 1 mps 757 mmHg 73%
    22:00 +28°C° 0 mm 1 mps 758 mmHg 77%
    23:00 +28°C° 0.1 mm 1 mps 758 mmHg 81%

    22 November, Thursday

    Time Temperature Precipitation Wind Pressure Humidity
    00:00 +27°C° 0.1 mm 1 mps 757 mmHg 84%
    01:00 +27°C° 0.1 mm 1 mps 757 mmHg 87%
    02:00 +27°C° 0 mm 1 mps 757 mmHg 89%
    03:00 +27°C° 0 mm 1 mps 756 mmHg 90%
    04:00 +26°C° 0 mm 1 mps 756 mmHg 92%
    05:00 +27°C° 0 mm 1 mps 757 mmHg 90%
    06:00 +27°C° 0 mm 1 mps 758 mmHg 89%
    07:00 +27°C° 0 mm 1 mps 758 mmHg 87%
    08:00 +29°C° 0 mm 2 mps 758 mmHg 80%
    09:00 +30°C° 0 mm 2 mps 758 mmHg 73%
    10:00 +32°C° 0 mm 2 mps 758 mmHg 66%
    11:00 +32°C° 0 mm 2 mps 758 mmHg 62%
    12:00 +34°C° 0 mm 2 mps 757 mmHg 58%
    13:00 +35°C° 0 mm 3 mps 756 mmHg 53%
    14:00 +35°C° 0 mm 2 mps 756 mmHg 55%
    15:00 +35°C° 0 mm 2 mps 755 mmHg 57%
    16:00 +34°C° 0 mm 2 mps 755 mmHg 59%
    17:00 +32°C° 0 mm 2 mps 755 mmHg 62%
    18:00 +31°C° 0 mm 2 mps 756 mmHg 65%
    19:00 +30°C° 0 mm 2 mps 757 mmHg 68%
    20:00 +29°C° 0 mm 2 mps 757 mmHg 69%
    21:00 +29°C° 0 mm 2 mps 757 mmHg 71%
    22:00 +29°C° 0 mm 2 mps 757 mmHg 73%
    23:00 +28°C° 0.1 mm 2 mps 757 mmHg 76%

    23 November, Friday

    Time Temperature Precipitation Wind Pressure Humidity
    00:00 +28°C° 0.1 mm 2 mps 756 mmHg 78%
    01:00 +27°C° 0.1 mm 2 mps 756 mmHg 81%
    02:00 +27°C° 0.1 mm 2 mps 756 mmHg 81%
    03:00 +27°C° 0.1 mm 2 mps 756 mmHg 82%
    04:00 +27°C° 0.1 mm 2 mps 755 mmHg 82%
    05:00 +27°C° 0 mm 2 mps 756 mmHg 82%
    06:00 +27°C° 0 mm 2 mps 757 mmHg 82%
    07:00 +27°C° 0 mm 2 mps 757 mmHg 82%
    08:00 +29°C° 0 mm 2 mps 757 mmHg 76%
    09:00 +30°C° 0 mm 2 mps 758 mmHg 70%
    10:00 +32°C° 0 mm 2 mps 758 mmHg 63%
    11:00 +33°C° 0.2 mm 3 mps 757 mmHg 63%
    12:00 +33°C° 0.2 mm 3 mps 756 mmHg 63%
    13:00 +33°C° 0.2 mm 3 mps 756 mmHg 63%
    14:00 +33°C° 0.2 mm 3 mps 755 mmHg 67%
    15:00 +31°C° 0.2 mm 3 mps 755 mmHg 70%
    16:00 +31°C° 0.2 mm 3 mps 755 mmHg 73%
    17:00 +30°C° 0 mm 3 mps 755 mmHg 76%
    18:00 +29°C° 0 mm 3 mps 756 mmHg 78%
    19:00 +28°C° 0 mm 3 mps 756 mmHg 81%
    20:00 +28°C° 0 mm 2 mps 757 mmHg 81%
    21:00 +28°C° 0 mm 2 mps 757 mmHg 81%
    22:00 +28°C° 0 mm 2 mps 757 mmHg 81%
    23:00 +27°C° 0 mm 2 mps 756 mmHg 81%
    Show more